Lid_Strength_Index
5 5 4 4 4 4 3 3 2 2 2 2 2 1 1 1 1 1 2 2 2 2 2 2 3 1 0 1 1 1 1 1 1
7 6 5 4 4 3 3 3 2 2 2 2 2 1 1 1 1 1 1 1 2 2 2 2 2 1 2 2 1 1 2 1 2
7 6 5 4 4 3 3 3 3 2 2 2 2 1 1 1 1 1 1 1 1 2 2 2 2 1 2 2 1 1 1 2 1
6 6 5 4 4 3 3 2 3 2 2 2 2 2 1 1 1 1 1 1 1 2 2 2 2 3 4 4 4 2 1 2 2
6 5 5 4 4 3 3 3 3 2 2 2 2 1 1 1 1 1 1 2 1 1 1 2 2 3 4 4 3 3 1 1 2
6 5 5 5 4 4 4 3 3 3 2 2 2 2 2 2 2 2 1 1 1 1 1 1 3 3 4 3 2 2 2 2 3
6 6 5 5 5 4 4 3 3 3 3 2 2 2 2 2 2 1 1 1 1 1 1 2 2 2 2 3 3 1 1 1 1
6 6 5 5 5 4 4 4 3 3 2 2 2 2 2 2 1 1 1 2 2 2 2 2 2 1 2 3 2 0 1 2 1
7 6 6 5 5 4 4 4 3 3 2 2 2 2 2 2 2 2 3 3 2 3 2 2 2 2 1 2 1 2 2 2 3
7 6 6 5 5 4 4 4 3 3 3 2 2 2 3 3 3 2 2 2 2 2 2 3 3 3 3 2 1 3 3 2 3
6 6 5 5 4 4 3 3 3 3 2 3 3 3 3 2 2 3 2 2 2 2 2 2 2 2 2 2 2 4 4 3 2
5 5 4 4 3 3 3 3 3 3 3 3 3 3 3 2 2 2 2 2 3 2 3 2 2 2 2 2 3 5 5 3 3
4 4 3 3 3 3 3 4 3 3 3 3 3 3 3 2 2 2 3 3 3 3 2 2 2 2 2 3 2 4 4 3 2
4 3 3 3 3 3 3 3 2 3 3 3 3 3 2 2 2 2 2 3 2 2 2 2 3 2 2 2 3 4 6 6 3
4 4 3 3 3 3 3 3 2 3 3 3 3 2 2 2 3 1 2 2 3 3 3 3 3 3 3 2 2 5 5 5 5
4 4 4 3 4 3 3 3 2 3 3 3 2 3 3 3 3 3 2 3 3 3 3 3 3 3 3 3 3 3 5 6 5
5 4 4 3 3 3 3 3 2 3 3 2 2 3 3 3 3 3 3 3 3 4 4 3 4 3 3 3 3 3 2 2 3
6 4 3 3 3 3 3 2 3 2 2 2 3 3 3 3 3 3 3 3 5 3 4 5 4 4 3 3 4 3 6 7 4
5 4 3 3 3 3 3 2 3 2 2 2 2 3 3 3 3 3 3 4 4 10 10 11 11 10 6 3 6 8 10 11 12
4 4 3 3 3 3 3 2 2 2 2 2 3 3 3 3 4 4 3 3 3 3 6 10 11 12 11 9 8 10 12 13 12